sat.trackr.live / text

‹ back to catalog

STARLINK-4167

NORAD 53033 · 2022-076AZ

PAYLOAD ACTIVE UNKNOWN

§ Identity

Operator
Country
US
Launch date
2022-07-07
Launch site
AFETR
Launch vehicle
Mass (kg)
RCS (m²)

Purposes: comms

External: N2YO · Heavens-Above · Gunter

§ Orbital elements

Epoch: 2026-09-19T16:36:14.564736Z

Period
93.85 min
Inclination
53.1602°
Eccentricity
0.0001219
Mean motion
15.34385700 rev/d
Perigee alt
461.9 km
Apogee alt
463.6 km
Semi-major
6,840.9 km
B*
1.5885e-5
RAAN
277.4728°
Arg perigee
85.8087°
Mean anomaly
274.3055°
Rev number
23,247

§ Raw data

STARLINK-41671 53033U 22076AZ  26262.69183524  .00000160  00000+0  15885-4 0  99942 53033  53.1602 277.4728 0001219  85.8087 274.3055 15.34385700232479

JSON: /api/v1/satellites/53033 · /tle

For live sub-satellite position, see the globe view (requires WebGL).

§ Visibility from observer

Set your observer location to see the next 7 days of passes ≥ 10°. The values pass through the URL so the page stays shareable.

No JS? Fill the form by hand. The geolocation button needs JavaScript.